Location: R�serve Fauniques des Laurentides
(47.3100°N, 71.1900°W)
Time: 14:02:18
(UTC-04:00)

Cosmos 1674 - Visible Passes

Search period start: 24 October 2014 00:00
Search period end: 02 November 2014 23:00
Orbit: 514 x 540 km, 82.5° (Epoch: 23 October)

Date Brightness Start Highest point End Pass type
(mag) Time Alt. Az. Time Alt. Az. Time Alt. Az.
24 Oct 4.5 05:23:57 10° SSE 05:27:34 36° E 05:31:13 10° NNE visible
25 Oct 4.6 05:12:40 10° SSE 05:16:13 33° E 05:19:47 10° NNE visible
26 Oct 4.7 05:01:22 10° SSE 05:04:50 30° E 05:08:20 10° NNE visible
26 Oct 3.9 06:37:35 10° SW 06:40:49 24° WNW 06:44:04 10° NNW visible
27 Oct 4.9 04:50:04 10° SSE 04:53:27 28° E 04:56:51 10° NNE visible
27 Oct 3.8 06:26:02 10° SW 06:29:22 25° WNW 06:32:44 10° NNW visible
28 Oct 5.0 04:38:46 10° SE 04:42:03 25° E 04:45:20 10° NNE visible
28 Oct 3.7 06:14:29 10° SW 06:17:55 28° WNW 06:21:22 10° NNW visible
29 Oct 5.1 04:28:19 14° SE 04:30:38 23° E 04:33:48 10° NE visible
29 Oct 3.5 06:03:44 15° SW 06:06:27 30° WNW 06:09:59 10° N visible
30 Oct 5.2 04:19:00 21° E 04:19:12 21° E 04:22:15 10° NE visible
30 Oct 3.4 05:54:21 31° W 05:54:58 33° WNW 05:58:35 10° N visible
31 Oct 5.5 04:09:02 17° ENE 04:09:02 17° ENE 04:10:39 10° NE visible
31 Oct 3.6 05:44:21 31° NW 05:44:21 31° NW 05:47:09 10° N visible
01 Nov 6.0 03:58:42 11° NE 03:58:42 11° NE 03:59:02 10° NE visible
01 Nov 4.3 05:34:00 22° NNW 05:34:00 22° NNW 05:35:42 10° N visible
02 Nov 5.0 04:23:26 15° N 04:23:26 15° N 04:24:14 10° N visible
